Home   Weather   Hudson   Past weeks

Flag for USA Past Weather in Hudson, Wisconsin, USA — Yesterday and Last 2 Weeks

Now
62 °F

Clear.


Feels Like: 62 °F
Forecast: 53 / 73 °F
Wind: No wind

Location: St. Paul Downtown Holman Field

Current Time: Sep 1, 2016 at 12:51:19 AM

Latest Report: Aug 31, 2016 at 11:53 PM


Visibility: 10 mi

Pressure: 30.20 "Hg

Humidity: 80%

Dew Point: 56 °F

Location of HudsonLocation

Past Weather in Hudson — Graph

°F

Hudson Temperature Yesterday

Maximum temperature yesterday: 77 °F (at 2:53 PM)
Minimum temperature yesterday: 57 °F (at 4:53 AM)
Average temperature yesterday: 67 °F

High & Low Weather Summary for the Past Weeks

 TemperatureHumidityPressure
High84 °F (Aug 29, 3:53 PM)100% (Aug 17, 3:53 AM)30.23 "Hg (Aug 17, 3:53 AM)
Low55 °F (Aug 21, 6:53 AM)39% (Aug 24, 2:53 PM)29.73 "Hg (Aug 20, 5:53 AM)
Average69 °F77%30.00 "Hg
* Reported Aug 16 10:53 PM — Aug 31 10:53 PM, Hudson, Weather by CustomWeather, © 2016

Note: Actual official high and low records may vary slightly from our data, if they occured in-between our weather recording intervals... More about our weather records

Advertising

Hudson Weather History for the Previous 24 Hours

Scroll right to see more
 ConditionsComfort  
Time TempWeatherWind HumidityBarometerVisibility
10:53 PM
Wed, Aug 31
63 °FClear.No wind81%30.19 "Hg10 mi
9:53 PM63 °FClear.No wind81%30.19 "Hg10 mi
8:53 PM67 °FClear.No wind61%30.17 "Hg10 mi
7:53 PM72 °FSunny.3 mph49%30.15 "Hg10 mi
6:53 PM75 °FSunny.8 mph42%30.14 "Hg10 mi
5:53 PM76 °FSunny.7 mph43%30.14 "Hg10 mi
4:53 PM77 °FSunny.7 mph42%30.15 "Hg10 mi
3:53 PM77 °FSunny.9 mph40%30.16 "Hg10 mi
2:53 PM77 °FSunny.10 mph40%30.17 "Hg10 mi
1:53 PM75 °FSunny.8 mph47%30.19 "Hg10 mi
12:53 PM74 °FSunny.12 mph45%30.19 "Hg10 mi
11:53 AM73 °FSunny.9 mph48%30.20 "Hg10 mi
10:53 AM72 °FSunny.9 mph52%30.21 "Hg10 mi
9:53 AM69 °FSunny.3 mph59%30.20 "Hg10 mi
8:53 AM64 °FPassing clouds.3 mph78%30.20 "Hg10 mi
7:53 AM60 °FSunny.5 mph90%30.20 "Hg10 mi
6:53 AM57 °FClear.3 mph90%30.19 "Hg10 mi
5:53 AM59 °FClear.5 mph87%30.18 "Hg10 mi
4:53 AM57 °FClear.No wind93%30.18 "Hg10 mi
3:53 AM60 °FClear.No wind83%30.19 "Hg10 mi
2:53 AM59 °FClear.5 mph84%30.18 "Hg10 mi
1:53 AM63 °FClear.No wind78%30.17 "Hg10 mi
12:53 AM63 °FClear.3 mph78%30.17 "Hg10 mi
Weather by CustomWeather, © 2016

See weather overviewHow to use our weather pages